TimeADT,TemperatureF,Dew PointF,Humidity,Sea Level PressureIn,VisibilityMPH,Wind Direction,Wind SpeedMPH,Gust SpeedMPH,PrecipitationIn,Events,Conditions,WindDirDegrees,DateUTC
12:00 AM,39,34,77,30.12,,West,5.8,,,,,260,2012-10-12 03:00:00
1:00 AM,40.1,36.0,85,30.12,-9999.0,WSW,6.9,-,N/A,,Unknown,240,2012-10-12 04:00:00
2:00 AM,37.6,34.2,87,30.12,-9999.0,WSW,5.8,-,N/A,,Unknown,250,2012-10-12 05:00:00
3:00 AM,39,36,83,30.12,,West,5.8,,,,,260,2012-10-12 06:00:00
3:00 AM,39.0,35.6,88,30.12,-9999.0,West,5.8,-,N/A,,Unknown,260,2012-10-12 06:00:00
4:00 AM,39.6,37.6,93,30.09,-9999.0,SW,4.6,-,N/A,,Unknown,230,2012-10-12 07:00:00
5:00 AM,47.5,43.7,87,30.07,-9999.0,WSW,8.1,-,N/A,,Unknown,240,2012-10-12 08:00:00
6:00 AM,52,47,76,30.06,,SW,12.7,,,,,230,2012-10-12 09:00:00
6:00 AM,52.0,46.8,82,30.06,-9999.0,SW,12.7,-,N/A,,Unknown,230,2012-10-12 09:00:00
7:00 AM,54.0,47.8,80,30.03,-9999.0,SSW,17.3,-,N/A,,Unknown,210,2012-10-12 10:00:00
8:00 AM,53.1,47.8,82,30.03,-9999.0,SW,13.8,-,N/A,,Unknown,230,2012-10-12 11:00:00
9:00 AM,55,49,74,30.02,,SW,16.1,,,,,220,2012-10-12 12:00:00
9:00 AM,54.9,48.9,80,30.02,-9999.0,SW,16.1,-,N/A,,Unknown,220,2012-10-12 12:00:00
10:00 AM,55.6,49.3,79,30.01,-9999.0,SSW,19.6,-,N/A,,Unknown,210,2012-10-12 13:00:00
11:00 AM,55.8,50.2,82,29.98,-9999.0,SSW,21.9,27.6,N/A,,Unknown,210,2012-10-12 14:00:00
12:00 PM,60,50,61,29.96,,SW,21.9,,,,,220,2012-10-12 15:00:00
12:00 PM,60.1,50.0,69,29.96,-9999.0,SW,21.9,27.6,N/A,,Unknown,220,2012-10-12 15:00:00
1:00 PM,58.1,48.2,70,29.93,-9999.0,WSW,18.4,25.3,N/A,,Unknown,240,2012-10-12 16:00:00
2:00 PM,58.6,50.0,73,29.90,-9999.0,SW,17.3,-,N/A,,Unknown,230,2012-10-12 17:00:00
3:00 PM,58,50,67,29.87,,SW,17.3,,,,,230,2012-10-12 18:00:00
3:00 PM,58.1,50.0,74,29.87,-9999.0,SW,17.3,-,N/A,,Unknown,230,2012-10-12 18:00:00
4:00 PM,60.3,46.2,60,29.86,-9999.0,WSW,16.1,24.2,N/A,,Unknown,250,2012-10-12 19:00:00
5:00 PM,54.3,46.4,75,29.88,-9999.0,NW,12.7,20.7,N/A,,Unknown,310,2012-10-12 20:00:00
6:00 PM,45,42,86,29.92,,WNW,17.3,,,,,300,2012-10-12 21:00:00
6:00 PM,45.1,42.1,89,29.92,-9999.0,WNW,17.3,23.0,N/A,,Unknown,300,2012-10-12 21:00:00
7:00 PM,43.5,41.7,93,29.95,-9999.0,WNW,9.2,-,0.03,,Unknown,290,2012-10-12 22:00:00
9:00 PM,42.1,39.4,90,29.98,-9999.0,NW,17.3,28.8,N/A,,Unknown,310,2012-10-13 00:00:00
10:00 PM,39.9,36.9,89,30.03,-9999.0,NW,12.7,19.6,N/A,,Unknown,320,2012-10-13 01:00:00
11:00 PM,37.9,33.4,84,30.05,-9999.0,NW,11.5,19.6,N/A,,Unknown,320,2012-10-13 02:00:00